Flag for Kuwait Weather past 2 weeks in Kuwait City, Kuwait

Now
109 °F

Sunny.


Feels Like: 103 °F
Forecast: 84 / 103 °F
Wind: 13 mph from North

Location: Kuwait International Airport

Current Time: May 26, 2015 at 3:51:23 PM

Latest Report: May 26, 2015 at 2:00 PM


Visibility: 10 mi

Pressure: 29.77 "Hg

Humidity: 8%

Dew point: 37 °F

Location of Kuwait CityLocation

Historic Weather in Kuwait City — Graph

°F

Kuwait City temperature yesterday

Maximum temperature yesterday: 108 °F (at 4:00 PM)
Minimum temperature yesterday: 88 °F (at 11:00 PM)
Average temperature yesterday: 96 °F

Past Weeks' High & Low Weather Summary

 TemperatureHumidityPressure
High111 °F (May 14, 12:29 PM)39% (May 13, 3:00 AM)29.95 "Hg (May 13, 3:00 AM)
Low75 °F (May 18, 4:00 AM)5% (May 19, 5:00 PM)29.59 "Hg (May 22, 7:00 PM)
Average95 °F15%29.76 "Hg
* Reported May 11 4:00 PM — May 26 2:00 PM, Kuwait City, Weather by CustomWeather, © 2015

Note: Actual official high and low records may vary slightly from our data, if they occured in-between our weather recording intervals... More about our weather records

Advertising

Kuwait City weather history for previous 24 hours

 ConditionsComfort  
Time TempWeatherWind HumidityBarometerVisibility
2:00 PM
Tue, May 26
109 °FSunny.13 mph8%29.77 "Hg10 mi
1:30 PM108 °FSunny.13 mph8%29.77 "Hg10 mi
12:00 PM104 °FScattered clouds.10 mph9%29.77 "HgN/A
11:00 AM104 °FSunny.10 mph9%29.80 "Hg10 mi
10:00 AM102 °FSunny.7 mph12%29.83 "Hg10 mi
9:00 AM100 °FSunny.7 mph15%29.83 "Hg10 mi
8:00 AM99 °FSunny.6 mph15%29.83 "Hg10 mi
7:00 AM93 °FSunny.7 mph21%29.80 "Hg10 mi
6:00 AM86 °FSunny.No wind24%29.80 "Hg10 mi
5:00 AM82 °FSunny.5 mph23%29.77 "Hg10 mi
4:00 AM82 °FClear.3 mph23%29.77 "Hg10 mi
3:00 AM84 °FClear.No wind22%29.77 "Hg10 mi
2:00 AM86 °FClear.5 mph20%29.77 "Hg10 mi
1:00 AM86 °FClear.No wind20%29.77 "Hg10 mi
12:00 AM90 °FClear.No wind20%29.77 "Hg10 mi
11:00 PM
Mon, May 25
88 °FClear.3 mph19%29.77 "Hg10 mi
10:00 PM90 °FClear.5 mph18%29.80 "Hg10 mi
9:00 PM93 °FClear.8 mph17%29.77 "Hg10 mi
8:00 PM97 °FClear.7 mph16%29.77 "Hg10 mi
7:00 PM100 °FClear.8 mph15%29.74 "Hg10 mi
6:00 PM102 °FSunny.9 mph14%29.74 "Hg10 mi
5:00 PM106 °FSunny.3 mph12%29.74 "Hg10 mi
4:00 PM108 °FSunny.12 mph10%29.74 "Hg10 mi
3:00 PM106 °FSunny.3 mph13%29.77 "Hg10 mi
Weather by CustomWeather, © 2015

See weather overviewHow to use our weather pages